• In Romania
  • List of Countries
  • For 7 days
  • Water Temperature
  • Satellite Maps
  • Weather Map
  • Weather Widgets
  • user-avatar
    Login

    Hourly Weather Annaba

    Today, 19 November, Sunday

    Time Temperature Precipitation Wind Pressure Humidity
    00:00 +13°C° 0.1 mm 5 mps 762 mmHg 89%
    01:00 +13°C° 0 mm 4 mps 762 mmHg 89%
    02:00 +13°C° 0.1 mm 4 mps 762 mmHg 89%
    03:00 +12°C° 0.1 mm 4 mps 762 mmHg 88%
    04:00 +12°C° 0.1 mm 4 mps 762 mmHg 88%
    05:00 +12°C° 0.1 mm 4 mps 762 mmHg 87%
    06:00 +12°C° 0.1 mm 4 mps 762 mmHg 87%
    07:00 +12°C° 0 mm 4 mps 763 mmHg 86%
    08:00 +13°C° 0.1 mm 5 mps 763 mmHg 81%
    09:00 +14°C° 0.1 mm 5 mps 763 mmHg 77%
    10:00 +16°C° 0.1 mm 5 mps 763 mmHg 73%
    11:00 +16°C° 0 mm 5 mps 763 mmHg 69%
    12:00 +17°C° 0 mm 6 mps 763 mmHg 66%
    13:00 +17°C° 0 mm 5 mps 763 mmHg 62%
    14:00 +17°C° 0 mm 5 mps 763 mmHg 62%
    15:00 +17°C° 0 mm 5 mps 763 mmHg 63%
    16:00 +17°C° 0 mm 5 mps 762 mmHg 64%
    17:00 +16°C° 0 mm 5 mps 763 mmHg 69%
    18:00 +15°C° 0 mm 4 mps 763 mmHg 74%
    19:00 +13°C° 0 mm 4 mps 763 mmHg 79%
    20:00 +13°C° 0 mm 4 mps 764 mmHg 80%
    21:00 +13°C° 0 mm 4 mps 764 mmHg 80%
    22:00 +13°C° 0 mm 4 mps 764 mmHg 81%
    23:00 +13°C° 0 mm 4 mps 764 mmHg 80%

    Tomorrow, 20 November, Monday

    Time Temperature Precipitation Wind Pressure Humidity
    00:00 +12°C° 0 mm 5 mps 764 mmHg 79%
    01:00 +12°C° 0 mm 5 mps 765 mmHg 77%
    02:00 +12°C° 0 mm 5 mps 764 mmHg 75%
    03:00 +12°C° 0 mm 5 mps 764 mmHg 73%
    04:00 +12°C° 0 mm 5 mps 764 mmHg 71%
    05:00 +12°C° 0 mm 5 mps 765 mmHg 69%
    06:00 +12°C° 0 mm 5 mps 765 mmHg 67%
    07:00 +12°C° 0 mm 5 mps 765 mmHg 66%
    08:00 +14°C° 0 mm 4 mps 765 mmHg 62%
    09:00 +15°C° 0 mm 4 mps 765 mmHg 59%
    10:00 +18°C° 0 mm 4 mps 766 mmHg 56%
    11:00 +18°C° 0 mm 4 mps 766 mmHg 56%
    12:00 +19°C° 0 mm 4 mps 765 mmHg 55%
    13:00 +20°C° 0 mm 4 mps 765 mmHg 54%
    14:00 +20°C° 0 mm 4 mps 765 mmHg 56%
    15:00 +19°C° 0 mm 4 mps 765 mmHg 57%
    16:00 +19°C° 0 mm 4 mps 765 mmHg 59%
    17:00 +18°C° 0 mm 3 mps 765 mmHg 66%
    18:00 +16°C° 0 mm 3 mps 765 mmHg 72%
    19:00 +15°C° 0 mm 2 mps 765 mmHg 79%
    20:00 +15°C° 0 mm 2 mps 766 mmHg 79%
    21:00 +15°C° 0 mm 2 mps 766 mmHg 80%
    22:00 +14°C° 0 mm 2 mps 766 mmHg 80%
    23:00 +14°C° 0 mm 2 mps 766 mmHg 79%

    Day after tomorrow, 21 November, Tuesday

    Time Temperature Precipitation Wind Pressure Humidity
    00:00 +14°C° 0 mm 2 mps 766 mmHg 77%
    01:00 +14°C° 0 mm 2 mps 766 mmHg 76%
    02:00 +13°C° 0 mm 2 mps 765 mmHg 74%
    03:00 +13°C° 0 mm 2 mps 765 mmHg 71%
    04:00 +13°C° 0 mm 2 mps 765 mmHg 69%
    05:00 +13°C° 0 mm 2 mps 765 mmHg 66%
    06:00 +13°C° 0 mm 2 mps 765 mmHg 63%
    07:00 +13°C° 0 mm 2 mps 765 mmHg 60%
    08:00 +14°C° 0 mm 2 mps 765 mmHg 54%
    09:00 +16°C° 0 mm 1 mps 765 mmHg 48%
    10:00 +19°C° 0 mm 1 mps 765 mmHg 42%
    11:00 +20°C° 0 mm 1 mps 765 mmHg 38%
    12:00 +22°C° 0 mm 1 mps 764 mmHg 35%
    13:00 +23°C° 0 mm 1 mps 764 mmHg 31%
    14:00 +22°C° 0 mm 1 mps 764 mmHg 35%
    15:00 +22°C° 0 mm 1 mps 763 mmHg 38%
    16:00 +21°C° 0 mm 1 mps 763 mmHg 42%
    17:00 +20°C° 0 mm 1 mps 763 mmHg 47%
    18:00 +18°C° 0 mm 1 mps 763 mmHg 53%
    19:00 +15°C° 0 mm 1 mps 764 mmHg 58%
    20:00 +15°C° 0 mm 1 mps 764 mmHg 57%
    21:00 +15°C° 0 mm 1 mps 764 mmHg 57%
    22:00 +15°C° 0 mm 1 mps 764 mmHg 56%
    23:00 +14°C° 0 mm 1 mps 764 mmHg 55%

    22 November, Wednesday

    Time Temperature Precipitation Wind Pressure Humidity
    00:00 +14°C° 0 mm 1 mps 764 mmHg 53%
    01:00 +14°C° 0 mm 2 mps 764 mmHg 52%
    02:00 +14°C° 0 mm 2 mps 763 mmHg 50%
    03:00 +14°C° 0 mm 2 mps 763 mmHg 49%
    04:00 +14°C° 0 mm 2 mps 763 mmHg 47%
    05:00 +13°C° 0 mm 2 mps 763 mmHg 46%
    06:00 +13°C° 0 mm 2 mps 763 mmHg 44%
    07:00 +13°C° 0 mm 2 mps 763 mmHg 43%
    08:00 +15°C° 0 mm 2 mps 763 mmHg 41%
    09:00 +17°C° 0 mm 2 mps 763 mmHg 38%
    10:00 +19°C° 0 mm 2 mps 763 mmHg 35%
    11:00 +20°C° 0 mm 2 mps 763 mmHg 33%
    12:00 +21°C° 0 mm 2 mps 763 mmHg 31%
    13:00 +23°C° 0 mm 1 mps 762 mmHg 29%
    14:00 +23°C° 0 mm 2 mps 762 mmHg 33%
    15:00 +23°C° 0 mm 2 mps 762 mmHg 37%
    16:00 +21°C° 0 mm 2 mps 762 mmHg 41%
    17:00 +20°C° 0 mm 2 mps 762 mmHg 45%
    18:00 +18°C° 0 mm 2 mps 762 mmHg 49%
    19:00 +16°C° 0 mm 2 mps 762 mmHg 53%
    20:00 +16°C° 0 mm 2 mps 763 mmHg 52%
    21:00 +16°C° 0 mm 2 mps 763 mmHg 51%
    22:00 +16°C° 0 mm 2 mps 763 mmHg 49%
    23:00 +15°C° 0 mm 2 mps 763 mmHg 48%

    23 November, Thursday

    Time Temperature Precipitation Wind Pressure Humidity
    00:00 +15°C° 0 mm 2 mps 763 mmHg 46%
    01:00 +15°C° 0 mm 2 mps 763 mmHg 44%
    02:00 +15°C° 0 mm 2 mps 763 mmHg 43%
    03:00 +14°C° 0 mm 2 mps 763 mmHg 42%
    04:00 +14°C° 0 mm 2 mps 763 mmHg 41%
    05:00 +14°C° 0 mm 2 mps 763 mmHg 41%
    06:00 +14°C° 0 mm 2 mps 764 mmHg 41%
    07:00 +14°C° 0 mm 2 mps 764 mmHg 41%
    08:00 +15°C° 0 mm 2 mps 764 mmHg 39%
    09:00 +17°C° 0 mm 2 mps 764 mmHg 38%
    10:00 +19°C° 0 mm 2 mps 765 mmHg 36%
    11:00 +20°C° 0 mm 2 mps 764 mmHg 34%
    12:00 +23°C° 0 mm 1 mps 764 mmHg 32%
    13:00 +24°C° 0 mm 1 mps 764 mmHg 30%
    14:00 +24°C° 0 mm 1 mps 764 mmHg 34%
    15:00 +23°C° 0 mm 2 mps 764 mmHg 37%
    16:00 +23°C° 0 mm 2 mps 764 mmHg 41%
    17:00 +20°C° 0 mm 2 mps 764 mmHg 44%
    18:00 +18°C° 0 mm 2 mps 764 mmHg 47%
    19:00 +17°C° 0 mm 2 mps 765 mmHg 50%
    20:00 +16°C° 0 mm 2 mps 765 mmHg 51%
    21:00 +16°C° 0 mm 2 mps 765 mmHg 51%
    22:00 +16°C° 0 mm 2 mps 765 mmHg 51%
    23:00 +16°C° 0 mm 2 mps 765 mmHg 52%

    24 November, Friday

    Time Temperature Precipitation Wind Pressure Humidity
    00:00 +15°C° 0 mm 2 mps 765 mmHg 53%
    01:00 +15°C° 0 mm 2 mps 765 mmHg 54%
    02:00 +15°C° 0 mm 2 mps 765 mmHg 56%
    03:00 +15°C° 0 mm 2 mps 765 mmHg 57%
    04:00 +14°C° 0 mm 2 mps 765 mmHg 59%
    05:00 +14°C° 0 mm 2 mps 765 mmHg 61%
    06:00 +14°C° 0 mm 2 mps 765 mmHg 64%
    07:00 +14°C° 0 mm 2 mps 765 mmHg 66%
    08:00 +16°C° 0 mm 2 mps 765 mmHg 62%
    09:00 +17°C° 0 mm 2 mps 766 mmHg 58%
    10:00 +19°C° 0 mm 2 mps 766 mmHg 54%
    11:00 +20°C° 0 mm 2 mps 765 mmHg 50%
    12:00 +22°C° 0 mm 1 mps 765 mmHg 46%
    13:00 +24°C° 0 mm 1 mps 765 mmHg 42%
    14:00 +23°C° 0 mm 1 mps 765 mmHg 44%
    15:00 +23°C° 0 mm 2 mps 765 mmHg 46%
    16:00 +23°C° 0 mm 2 mps 764 mmHg 47%
    17:00 +20°C° 0 mm 2 mps 765 mmHg 53%
    18:00 +19°C° 0 mm 2 mps 765 mmHg 59%
    19:00 +17°C° 0 mm 2 mps 765 mmHg 64%
    20:00 +17°C° 0 mm 2 mps 765 mmHg 64%
    21:00 +17°C° 0 mm 2 mps 765 mmHg 65%
    22:00 +16°C° 0 mm 2 mps 765 mmHg 65%
    23:00 +16°C° 0 mm 3 mps 765 mmHg 66%
    Show more